IRNSS-1I

Last updated on Fri Jun 19 2026 17:09:33 GMT+0000 (Coordinated Universal Time)

1 43286U 18035A 26166.83981681 .00000062 00000+0 00000+0 0 9991 2 43286 28.7520 74.2167 0017811 181.5598 5.5147 1.00272046 30064
UTC large
Height (km)
Speed (km/s)
/
Latitude / Longitude
Inclination (degrees)
Orbital Period (minutes)
Azimuth
Elevation
Range (km)
Doppler Factor

Next 0 passes for location: London (51.5072 / 0.1276)

No passes found over London.
IRNSS-1I